CDT,Max TemperatureF,Mean TemperatureF,Min TemperatureF,Max Dew PointF,MeanDew PointF,Min DewpointF,Max Humidity, Mean Humidity, Min Humidity, Max Sea Level PressureIn, Mean Sea Level PressureIn, Min Sea Level PressureIn, Max VisibilityMiles, Mean VisibilityMiles, Min VisibilityMiles, Max Wind SpeedMPH, Mean Wind SpeedMPH, Max Gust SpeedMPH,PrecipitationIn, CloudCover, Events, WindDirDegrees
2013-3-1,25,15,4,14,8,1,92,76,60,30.46,30.42,30.35,10,10,8,9,5,12,0.00,2,,354
2013-3-2,24,14,3,17,10,1,91,78,65,30.36,30.20,30.04,10,9,4,23,12,28,T,6,Rain,167
2013-3-3,31,22,13,21,17,7,84,71,58,30.07,29.94,29.85,10,9,2,22,13,25,0.01,8,Snow,146
2013-3-4,27,26,24,25,22,19,92,84,75,30.08,29.90,29.82,10,2,0,24,16,31,0.34,8,Fog-Snow,107
2013-3-5,25,22,18,22,18,14,88,83,77,30.43,30.25,30.03,10,6,2,23,14,26,0.04,8,Snow,358
2013-3-6,25,13,1,15,12,0,92,79,65,30.47,30.41,30.32,10,9,7,10,5,13,T,7,Snow,20
2013-3-7,27,11,-5,19,9,-6,95,82,68,30.35,30.27,30.16,10,9,0,23,9,26,0.00,4,Fog,156
2013-3-8,32,25,18,23,21,17,92,79,66,30.23,30.19,30.11,10,9,5,15,8,17,0.00,7,,262
2013-3-9,29,26,22,23,20,17,92,81,69,30.07,29.94,29.83,10,8,2,26,14,33,T,8,Snow,349
2013-3-10,23,11,-1,18,11,-3,87,77,67,30.27,30.17,30.04,10,10,4,25,16,32,T,4,Snow,339
2013-3-11,22,12,1,15,8,-3,91,79,67,30.14,29.95,29.84,10,10,4,10,4,12,T,6,Snow,296
2013-3-12,22,11,0,16,11,-1,95,83,71,30.35,30.15,29.93,10,8,2,26,14,32,0.02,5,Snow,335
2013-3-13,21,5,-11,18,5,-12,92,83,73,30.41,30.27,30.05,10,8,0,21,10,25,0.12,3,Fog-Snow,190
2013-3-14,28,17,6,21,15,4,100,85,69,30.16,30.08,30.01,10,5,0,22,8,25,0.01,5,Fog-Snow,131
2013-3-15,20,10,-1,15,8,-3,88,82,76,30.21,30.10,30.02,10,3,0,22,16,25,0.10,8,Fog-Snow,360
2013-3-16,10,-4,-18,1,-8,-20,89,78,66,30.38,30.28,30.15,10,10,5,18,9,21,0.00,3,,320
2013-3-17,20,-1,-23,17,3,-27,92,81,69,30.37,29.94,29.61,10,5,1,25,14,30,0.19,7,Snow,142
2013-3-18,23,13,3,20,13,-3,92,80,67,30.01,29.63,29.43,10,3,0,33,19,43,0.14,6,Snow,335
2013-3-19,15,4,-7,0,-5,-13,79,65,51,30.36,30.23,30.05,10,10,10,17,13,21,0.00,1,,306
2013-3-20,15,4,-7,1,-5,-12,78,66,53,30.39,30.33,30.24,10,10,10,20,12,22,0.00,0,,318
2013-3-21,16,2,-13,8,-5,-17,88,75,61,30.23,30.19,30.17,10,10,10,8,5,8,0.00,0,,329
2013-3-22,19,5,-10,11,-1,-13,90,79,67,30.20,30.17,30.14,10,10,7,9,5,9,0.00,2,,325
2013-3-23,26,16,5,18,11,1,88,78,67,30.24,30.21,30.18,10,10,10,10,6,12,0.00,5,,318
2013-3-24,25,22,19,19,18,15,91,86,81,30.27,30.21,30.16,10,8,1,22,13,25,0.01,8,Snow,345
2013-3-25,26,16,5,19,14,4,84,76,68,30.38,30.34,30.28,10,10,9,20,13,23,T,5,Snow,336
2013-3-26,28,13,-2,15,6,-4,100,79,57,30.39,30.36,30.29,10,9,1,9,3,10,0.00,1,,268
2013-3-27,30,14,-3,20,3,-8,100,82,63,30.38,30.32,30.28,10,3,0,7,2,8,0.00,2,Fog,345
2013-3-28,37,22,6,29,14,5,100,85,69,30.32,30.26,30.21,10,4,0,12,4,17,0.00,2,Fog,161
2013-3-29,31,26,21,29,25,18,100,92,84,30.26,30.14,29.97,1,0,0,9,2,12,0.00,8,Fog,210
2013-3-30,39,33,26,31,28,25,100,85,70,29.99,29.93,29.87,10,5,0,14,6,16,0.00,6,Fog,279
2013-3-31,32,24,15,29,18,9,85,73,60,30.25,30.04,29.82,10,10,10,31,19,37,T,5,,335